Regional Weather Roundup
Issued by NWS

Home | Current Version | Previous Version | Text Only | Print | Product List | Glossary Off
Versions: 1 2 3 4 5 6 7 8 9 10 11 12 13 14 15 16 17 18 19 20 21 22 23 24 25 26 27 28 29 30 31 32 33 34 35 36 37 38 39 40 41 42 43 44 45 46 47 48 49 50

000
ASUS43 KMPX 241901
RWRMN
WEATHER ROUNDUP FOR MINNESOTA
NATIONAL WEATHER SERVICE TWIN CITIES/CHANHASSEN MN
100 PM CST FRI FEB 24 2017


NOTE: "FAIR" INDICATES FEW OR NO CLOUDS BELOW 12,000 FEET WITH NO
SIGNIFICANT WEATHER AND/OR OBSTRUCTIONS TO VISIBILITY. N/A MEANS
CURRENT SKY AND/OR WEATHER CONDITIONS ARE NOT AVAILABLE.

MNZ060>063-068>070-242000-
   Twin Cities Metro

CITY           SKY/WX    TMP DP  RH WIND       PRES   REMARKS
TWIN CITIES    CLOUDY    26  14  60 N22G29    29.81F WCI  12
ST PAUL        CLOUDY    26  17  68 N21G30    29.82F WCI  12
CRYSTAL        CLOUDY    25  12  58 N20       29.83F WCI  11
BLAINE         CLOUDY    27  18  69 N20G26    29.83F WCI  13
LAKEVILLE      CLOUDY    25  18  74 N18G25    29.79F WCI  11
EDEN PRAIRIE   CLOUDY    26  14  60 N17G29    29.80F WCI  13
SOUTH ST PAUL  CLOUDY    27  18  71 N15G24    29.80F WCI  15
LAKE ELMO      LGT SNOW  27  21  80 N12G23    29.80F WCI  16
$$
MNZ001>005-007-008-013>017-022>024-027-028-242000-
   Northwest Minnesota

CITY           SKY/WX    TMP DP  RH WIND       PRES   REMARKS
BEMIDJI        SUNNY     18   6  60 NW15      30.00F WCI   4
HALLOCK        SUNNY     18  10  73 NW17      30.13F WCI   2
ROSEAU         SUNNY     18   7  62 NW9       30.07F WCI   6
WARROAD        SUNNY     18   5  57 NW7       30.07F WCI   8
THIEF RVR FALL SUNNY     20   9  62 N16       30.08F WCI   6
CROOKSTON      MOSUNNY   21  12  68 N16       30.12F WCI   7
FOSSTON        SUNNY     21  10  63 NW15      30.05F WCI   8
DETROIT LAKES  MOSUNNY   23  16  74 N12G22    30.01F WCI  12
MOORHEAD       MOSUNNY   23  16  74 N22       30.08F WCI   8
PARK RAPIDS    SUNNY     21   5  50 N16       29.96F WCI   7
MAHNOMEN       MOCLDY    22  12  67 N18G24    30.03F WCI   7
$$
MNZ006-009>011-018-025>026-242000-
   North Central Minnesota

CITY           SKY/WX    TMP DP  RH WIND       PRES   REMARKS
BAUDETTE       SUNNY     14   3  61 NW12      30.04F WCI   0
FLAG ISLAND    SUNNY     16   1  53 NW12      30.06F WCI   3
INTL FALLS     MOSUNNY   16   3  56 VRB5      30.00F WCI   9
WASKISH        PTSUNNY   19   7  58 NW9       30.02F WCI   9
BIG FORK       SUNNY     19   3  49 N9        29.96F WCI   9
LONGVILLE      MOSUNNY   19   7  58 N9G16     29.96F WCI   9
GRAND RAPIDS   MOSUNNY   18   7  62 N14       29.96F WCI   4
CRANE LAKE     MOSUNNY   16   1  53 N5        30.00F WCI   9
ORR            MOSUNNY   18   1  49 NW8       29.93F WCI   7
COOK           MOSUNNY   18   3  53 N6        29.95F WCI   9
WALKER         FAIR      18   4  56 N12G20    29.98F WCI   5
$$
MNZ012-019>021-037-242000-
   Northeast Minnesota

CITY           SKY/WX    TMP DP  RH WIND       PRES   REMARKS
DULUTH         CLOUDY    19  10  68 N13       29.87F WCI   6
ELY            CLOUDY    16   1  53 N6        29.92F WCI   7
HIBBING        CLOUDY    17   5  59 N10       29.92F WCI   5
EVELETH        CLOUDY    17  -1  44 NE9       29.93F WCI   6
DULUTH HARBOR  CLOUDY    21  14  73 N12G18    29.94F WCI   9
TWO HARBORS    CLOUDY    21  10  63 N7        29.89F WCI  13
SILVER BAY     CLOUDY    19   7  58 N8        29.89F WCI   9
GRAND MARAIS     N/A     20   3  48 N7        29.94F WCI  11
G MARAIS ARPRT CLOUDY    10  -2  56 NW10      29.85F WCI  -3
$$
MNZ029>031-032-039>041-046>048-054>057-064-242000-
   West Central Minnesota

CITY           SKY/WX    TMP DP  RH WIND       PRES   REMARKS
FERGUS FALLS   MOSUNNY   25  12  58 N20G26    30.04F WCI  11
WHEATON        MOSUNNY   25  16  68 N21G26    30.04F WCI  10
MORRIS         CLOUDY    27  14  59 N28       29.96F WCI  11
ALEXANDRIA     CLOUDY    25   9  50 N25G33    29.94F WCI   9
ELBOW LAKE     FAIR      24  13  61 N23G30    29.98F WCI   9
WADENA         CLOUDY    21  10  63 N22       29.94F WCI   5
GLENWOOD       MOSUNNY   25  10  54 N25G31    29.93F WCI   9
APPLETON       PTSUNNY   28  12  50 N29       29.96F WCI  13
BENSON         MOSUNNY   30   7  37 NE25G32   29.96F WCI  16
ORTONVILLE     CLOUDY    27  14  59 N26G33    29.99F WCI  11
MADISON        MOSUNNY   30  14  51 N25G31    29.97F WCI  16
WILLMAR        FAIR      27  16  63 N24G30    29.91F WCI  12
$$
MNZ033>034-036-042>043-049>051-058-059-242000-
   Central Minnesota

CITY           SKY/WX    TMP DP  RH WIND       PRES   REMARKS
ST CLOUD       MOSUNNY   25  11  55 N13G23    29.88F WCI  14
SAUK CENTRE    FAIR      25  10  53 N18G25    29.92F WCI  11
PAYNESVILLE    MOSUNNY   26  11  54 N20G28    29.90F WCI  12
AITKIN         MOSUNNY   23  10  58 N14       29.90F WCI  11
PINE RIVER     MOSUNNY   19   9  63 N10G18    29.98F WCI   8
BRAINERD       SUNNY     20   9  62 N21       29.92F WCI   4
STAPLES        CLOUDY    19   9  63 N18G24    29.94F WCI   4
LONG PRAIRIE   FAIR      23  10  58 NW17G26   29.92F WCI   9
LITTLE FALLS   SUNNY     25   9  50 N12G20    29.91F WCI  14
LITCHFIELD     MOSUNNY   27  10  50 N17G26    29.87F WCI  14
BUFFALO        CLOUDY    25  13  61 N15G23    29.86F WCI  12
MAPLE LAKE     MOSUNNY   28  16  62 N18G26    29.87F WCI  15
HUTCHINSON     SUNNY     27  14  56 NW21G30   29.86F WCI  13
$$
MNZ037-044-045-052-053-242000-
   East Central Minnesota

CITY           SKY/WX    TMP DP  RH WIND       PRES   REMARKS
PRINCETON      CLOUDY    25  14  63 NW17      29.87F WCI  11
MORA           PTSUNNY   25  14  63 N7        29.90F WCI  17
CAMBRIDGE      PTSUNNY   25  14  63 N15G22    29.84F WCI  12
RUSH CITY      CLOUDY    23  14  68 N17G24    29.86F WCI   9
MOOSE LAKE     CLOUDY    23  14  68 N14       29.87F WCI  11
HINCKLEY       MOCLDY    25  16  68 N15       29.88F WCI  12
CLOQUET        CLOUDY    19  10  68 N9        29.88F WCI   9
MCGREGOR       MOSUNNY   21  12  68 N17       29.91F WCI   7
$$
MNZ071>073-080-081-089-090-097-098-242000-
   Southwest Minnesota

CITY           SKY/WX    TMP DP  RH WIND       PRES   REMARKS
MONTEVIDEO     MOSUNNY   28  12  50 NE28G38   29.95F WCI  13
GRANITE FALLS  MOSUNNY   29  13  52 N23G33    29.93F WCI  15
CANBY          MOSUNNY   29  15  55 N21G33    29.97F WCI  15
MARSHALL       CLOUDY    26  13  57 N29G37    29.90F WCI  10
REDWOOD FALLS  PTSUNNY   27  11  51 N17G28    29.88F WCI  14
OLIVIA         PTSUNNY   28  14  54 N20G26    29.88F WCI  15
PIPESTONE      CLOUDY    25   9  50 N20G33    29.88F WCI  11
WINDOM         CLOUDY    25  16  68 N24       29.84S WCI   9
WORTHINGTON    CLOUDY    23  16  74 N25       29.84S WCI   7
JACKSON        CLOUDY    23  18  80 N15G23    29.81F HAZE    WCI  10
TRACY          CLOUDY    26  15  62 N25G35    29.89F WCI  11
SLAYTON        CLOUDY    23  13  66 N30G37    29.86F WCI   5
$$
MNZ065>067-074>077-082>085-091>093-242000-
   South Central Minnesota

CITY           SKY/WX    TMP DP  RH WIND       PRES   REMARKS
MANKATO          N/A     26  18  71 N23       29.80F WCI  11
NEW ULM        CLOUDY    25  10  54 N16G26    29.83R WCI  12
ST JAMES       CLOUDY    25  18  74 NW24G30   29.84S HAZE    WCI   9
FAIRMONT       LGT SNOW  25  19  78 N25G33    29.80S VSB 1   WCI   9
GLENCOE        CLOUDY    27  17  66 N21G26    29.83F WCI  13
FARIBAULT      LGT SNOW  25  21  86 N12       29.78F VSB 3/4 WCI  14
OWATONNA         N/A     25  19  80 N23       29.76S WCI  10
WASECA         CLOUDY    23  21  93 N17       29.78F WCI   9
ALBERT LEA     LGT SNOW  25  21  86 N18G28    29.72S VSB 3/4 WCI  11
$$
MNZ078>079-086>088-094>096-242000-
   Southeast Minnesota

CITY           SKY/WX    TMP DP  RH WIND       PRES   REMARKS
ROCHESTER      CLOUDY    25  22  88 N21G30    29.68F FOG     WCI  11
RED WING       LGT SNOW  27  21  80 N9G16     29.76F VSB 1   WCI  17
STANTON        LGT SNOW  26  22  84 N16G24    29.78R VSB 1   WCI  14
DODGE CENTER     N/A    N/A N/A N/A N22       29.70F
WINONA           N/A     30  23  74 NE10G17   29.71S WCI  21
AUSTIN           N/A     25  21  86 N16G25    29.69F WCI  12
PRESTON        CLOUDY    27  23  87 N14G26    29.65F WCI  15
$$
ABBREVIATIONS USED IN REMARKS
   TC - TEMPERATURES IN CELSIUS
  WCI - WIND CHILL INDEX
   HX - HEAT INDEX
  VSB - VISIBILITY
$$




USA.gov is the U.S. government's official web portal to all federal, state and local government web resources and services.